Weather in Kyurdamir

Azerbaijan     40°20′51″N   48°08′50″E
temp.,
°C
wind,
m/s
gust,
m/s
humid.,
%
clouds,
%
prec.,
mm/h
press.,
hPa
HPBL,
m
30 november, tue
tue3001:00+11nnw116520 0.0 101610
04:00+11wnw226593 0.0 101511
07:00+11wnw4667100 0.0 101370
10:00+14w485410 0.0 1013219
13:00+20w683835 0.0 1010431
16:00+20w4839100 0.0 1007283
19:00+16wsw2247100 0.0 100614
22:00+15ese445135 0.0 100536
1 december, wed
wed101:00+13ese34580 0.0 100353
04:00+12se22660 0.0 100115
07:00+11ne11730 0.0 100110
10:00+15nw45560 0.0 1001169
13:00+19wnw78410 0.0 1001483
16:00+17wnw1014410 0.0 1001549
19:00+12wnw812550 0.0 1003303
22:00+11nw12699 0.1 100536
2 december, thu
thu201:00+11n1268100 0.0 100887
04:00+9nnw3487100 1.8 1011166
07:00+9s228295 0.8 101369
10:00+10sse126791 0.8 1016454
13:00+13nnw3456100 0.0 10181163
16:00+11ese76555 0.0 1021699
19:00+9se35655 0.0 1024113
22:00+8se22635 0.0 102624
3 december, fri
fri301:00+6e11695 0.0 102610
04:00+6se22765 0.0 102610
07:00+5sw01842 0.0 102710
10:00+8n11690 0.0 1028174
13:00+11sw11543 0.0 1026657
16:00+12sw124919 0.0 1025799
19:00+9n226087 0.0 102512
22:00+8ene116782 0.0 102410
4 december, sat
sat401:00+7n22705 0.0 102310
04:00+6wnw22730 0.0 102214
07:00+5w227914 0.0 102221
10:00+8w23685 0.0 1022199
13:00+11w22535 0.0 1020645
16:00+12wsw12470 0.0 1019691
19:00+9se22580 0.0 101810
22:00+8ne22650 0.0 101817